Location: ????????
(38.4362°N, 22.8767°E)
Time: 17:22:17
(UTC+00:00)

ACS3 Solar Sail - Pass Details

Date: 24 June 2024
Orbit: 992 x 1023 km, 97.4° (Epoch: 14 July)

Event Time Altitude Azimuth Distance (km) Brightness Sun altitude
Exits shadow 20:39:54 25° 207° (SSW) 1,876 6.0 -22.9°
Maximum altitude 20:43:04 44° 263° (W) 1,354 5.6 -23.2°
Drops below altitude 10° 20:48:58 10° 335° (NNW) 2,764 8.3 -23.7°
Sets 20:51:36 0° 342° (NNW) 3,716 9.3 -23.9°
